EW3857 Weather Reports


Display with metric or nautical units.
time (UTC)temp
F
wind
direction
speed
MPH
gust
MPH
rain 1hr
in
rain 24hr
in
rain mn
in
humidity
%
barometer
mb
20260504043737 48 272 0.0 0.0 0.00 0.00 0.00 85 1020.1
20260504043234 48 272 0.0 0.0 0.00 0.00 0.00 84 1020.2
20260504042732 48 272 0.0 0.0 0.00 0.00 0.00 85 1020.5
20260504042228 48 273 0.0 0.0 0.00 0.00 0.00 85 1020.2
20260504041724 48 274 0.0 0.0 0.00 0.00 0.00 85 1019.9
20260504041220 49 275 0.0 0.0 0.00 0.00 0.00 85 1020.2
20260504040717 49 275 0.0 0.0 0.00 0.00 0.00 85 1020.4
20260504040214 49 275 0.0 0.0 0.00 0.00 0.00 83 1020.3
20260504035710 49 276 0.0 1.0 0.00 0.00 0.00 83 1020.4
20260504035208 49 269 1.0 1.0 0.00 0.00 0.00 84 1020.6
20260504034705 50 270 0.0 0.0 0.00 0.00 0.00 84 1020.8
20260504034202 49 269 0.0 0.0 0.00 0.00 0.00 81 1020.7
20260504033700 50 269 0.0 0.0 0.00 0.00 0.00 81 1020.8
20260504033156 50 269 1.0 1.0 0.00 0.00 0.00 82 1020.8
20260504032653 50 273 0.0 0.0 0.00 0.00 0.00 82 1020.8
20260504032150 50 273 0.0 0.0 0.00 0.00 0.00 82 1020.9
20260504031647 50 276 0.0 0.0 0.00 0.00 0.00 82 1020.6
20260504031144 50 277 0.0 0.0 0.00 0.00 0.00 81 1020.9
20260504030640 50 269 0.0 1.0 0.00 0.00 0.00 82 1021.0
20260504030137 51 269 0.0 0.0 0.00 0.00 0.00 82 1020.9
20260504025634 51 275 1.0 1.0 0.00 0.00 0.00 82 1020.9
20260504025131 51 275 0.0 1.0 0.00 0.00 0.00 81 1020.8
20260504024628 51 271 0.0 0.0 0.00 0.00 0.00 80 1020.8
20260504024124 51 276 0.0 0.0 0.00 0.00 0.00 80 1020.5
20260504023621 51 271 0.0 0.0 0.00 0.00 0.00 81 1020.8
20260504023117 51 271 0.0 0.0 0.00 0.00 0.00 80 1020.5
20260504022614 52 271 0.0 0.0 0.00 0.00 0.00 79 1020.3
20260504022110 52 272 0.0 0.0 0.00 0.00 0.00 79 1020.5
20260504021608 52 266 1.0 1.0 0.00 0.00 0.00 78 1020.4
20260504021104 52 274 0.0 1.0 0.00 0.00 0.00 78 1020.3
20260504020601 53 281 1.0 1.0 0.00 0.00 0.00 78 1020.3
20260504020057 53 270 0.0 1.0 0.00 0.00 0.00 78 1020.0
20260504015554 53 270 1.0 1.0 0.00 0.00 0.00 77 1020.0
20260504015050 54 271 1.0 1.0 0.00 0.00 0.00 76 1020.1
20260504014546 54 271 0.0 0.0 0.00 0.00 0.00 72 1019.9
20260504014044 55 271 0.0 0.0 0.00 0.00 0.00 72 1020.1
20260504013541 54 279 1.0 1.0 0.00 0.00 0.00 70 1019.8
20260504013038 54 248 1.0 1.0 0.00 0.00 0.00 78 1019.9
20260504012535 55 276 0.0 1.0 0.00 0.00 0.00 75 1020.0
20260504012033 55 273 0.0 0.0 0.00 0.00 0.00 75 1019.7
20260504011530 55 273 0.0 0.0 0.00 0.00 0.00 74 1019.9
20260504011026 56 277 0.0 0.0 0.00 0.00 0.00 73 1019.7
20260504010522 56 279 0.0 1.0 0.00 0.00 0.00 72 1019.8
20260504010018 57 280 0.0 1.0 0.00 0.00 0.00 70 1020.0
20260504005515 57 273 1.0 1.0 0.00 0.00 0.00 69 1019.9
20260504005012 57 276 1.0 1.0 0.00 0.00 0.00 69 1019.8
20260504004510 58 276 1.0 1.0 0.00 0.00 0.00 67 1019.7
20260504004007 58 277 1.0 1.0 0.00 0.00 0.00 66 1019.8
20260504003503 59 271 1.0 1.0 0.00 0.00 0.00 66 1019.7
20260504003000 59 277 1.0 1.0 0.00 0.00 0.00 67 1019.7
20260504002456 60 279 1.0 1.0 0.00 0.00 0.00 65 1019.6
20260504001954 61 276 1.0 1.0 0.00 0.00 0.00 61 1019.7
20260504001451 61 269 0.0 1.0 0.00 0.00 0.00 60 1019.8
20260504000948 62 263 0.0 0.0 0.00 0.00 0.00 59 1019.6
20260504000445 62 260 0.0 0.0 0.00 0.00 0.00 55 1019.7
20260503235942 63 255 0.0 0.0 0.00 0.00 0.00 53 1019.8
20260503235440 64 254 0.0 1.0 0.00 0.00 0.00 51 1019.8
20260503234937 65 261 0.0 0.0 0.00 0.00 0.00 48 1019.8
20260503234435 65 264 0.0 0.0 0.00 0.00 0.00 47 1019.7
20260503233933 65 268 0.0 1.0 0.00 0.00 0.00 44 1019.7
20260503233429 66 267 0.0 0.0 0.00 0.00 0.00 46 1019.7
20260503232925 66 244 0.0 1.0 0.00 0.00 0.00 45 1019.7
20260503232422 66 266 0.0 0.0 0.00 0.00 0.00 45 1019.9
20260503231920 66 304 0.0 0.0 0.00 0.00 0.00 44 1019.7
20260503231417 66 272 1.0 2.0 0.00 0.00 0.00 42 1019.7
20260503230914 66 296 2.0 2.0 0.00 0.00 0.00 42 1019.7
20260503230410 67 298 2.0 2.0 0.00 0.00 0.00 43 1019.5
20260503225908 67 304 2.0 2.0 0.00 0.00 0.00 43 1019.8
20260503225404 67 280 1.0 1.0 0.00 0.00 0.00 43 1019.9
20260503224900 67 346 2.0 2.0 0.00 0.00 0.00 44 1019.9
20260503224357 68 277 1.0 2.0 0.00 0.00 0.00 44 1019.8
20260503223855 68 309 1.0 2.0 0.00 0.00 0.00 40 1020.0
20260503223353 69 311 2.0 2.0 0.00 0.00 0.00 39 1019.7
20260503222848 70 274 1.0 1.0 0.00 0.00 0.00 38 1020.0
20260503222347 71 285 1.0 1.0 0.00 0.00 0.00 37 1020.0
20260503221844 69 199 0.0 1.0 0.00 0.00 0.00 41 1020.0
20260503221343 69 273 2.0 2.0 0.00 0.00 0.00 39 1020.1
20260503220838 69 338 3.0 3.0 0.00 0.00 0.00 41 1020.1
20260503220335 69 282 1.0 1.0 0.00 0.00 0.00 42 1020.1
20260503215832 69 279 1.0 2.0 0.00 0.00 0.00 39 1020.0
20260503215329 68 274 2.0 2.0 0.00 0.00 0.00 38 1020.2
20260503214826 68 301 3.0 3.0 0.00 0.00 0.00 39 1020.1
20260503214324 68 295 1.0 1.0 0.00 0.00 0.00 41 1020.3
20260503213816 68 261 0.0 0.0 0.00 0.00 0.00 42 1020.4
20260503213313 68 235 1.0 1.0 0.00 0.00 0.00 43 1020.3
20260503212809 68 161 1.0 1.0 0.00 0.00 0.00 42 1020.4
20260503212307 68 273 0.0 0.0 0.00 0.00 0.00 43 1020.4
20260503211804 68 231 1.0 1.0 0.00 0.00 0.00 41 1020.6
20260503211256 68 259 0.0 1.0 0.00 0.00 0.00 44 1020.5
20260503210755 68 268 1.0 1.0 0.00 0.00 0.00 44 1020.7
20260503210253 67 357 1.0 2.0 0.00 0.00 0.00 44 1020.6
20260503205748 68 261 1.0 2.0 0.00 0.00 0.00 42 1020.7
20260503205245 68 299 1.0 1.0 0.00 0.00 0.00 40 1020.7
20260503204742 68 291 1.0 2.0 0.00 0.00 0.00 45 1021.0
20260503204239 68 258 0.0 1.0 0.00 0.00 0.00 43 1021.2
20260503203737 68 258 1.0 2.0 0.00 0.00 0.00 41 1021.1
20260503203234 68 310 3.0 3.0 0.00 0.00 0.00 41 1021.2
20260503202731 68 318 1.0 2.0 0.00 0.00 0.00 41 1021.1
20260503202229 68 343 6.0 7.0 0.00 0.00 0.00 43 1021.2
20260503201727 67 264 1.0 1.0 0.00 0.00 0.00 40 1021.4
20260503201224 67 343 3.0 5.0 0.00 0.00 0.00 40 1021.2
20260503200720 68 270 2.0 2.0 0.00 0.00 0.00 40 1021.2
20260503200217 68 288 2.0 3.0 0.00 0.00 0.00 39 1021.5
20260503195713 69 274 2.0 2.0 0.00 0.00 0.00 43 1021.7
20260503195210 69 281 2.0 2.0 0.00 0.00 0.00 40 1021.8
20260503194708 70 278 1.0 1.0 0.00 0.00 0.00 38 1021.9
20260503194203 70 270 1.0 1.0 0.00 0.00 0.00 35 1022.0
20260503193700 69 292 2.0 2.0 0.00 0.00 0.00 43 1022.1
20260503193156 68 288 0.0 0.0 0.00 0.00 0.00 41 1022.2
20260503192651 68 318 4.0 5.0 0.00 0.00 0.00 46 1022.3
20260503192147 67 315 0.0 1.0 0.00 0.00 0.00 46 1022.2
20260503191644 66 16 3.0 5.0 0.00 0.00 0.00 47 1022.5
20260503191141 65 72 2.0 2.0 0.00 0.00 0.00 49 1022.5
20260503190638 65 65 2.0 2.0 0.00 0.00 0.00 49 1022.7
20260503190135 64 205 3.0 3.0 0.00 0.00 0.00 54 1022.6
20260503185631 64 147 4.0 5.0 0.00 0.00 0.00 52 1023.0
20260503185126 64 167 5.0 7.0 0.00 0.00 0.00 51 1022.9
20260503184622 64 161 2.0 2.0 0.00 0.00 0.00 49 1022.8
20260503184118 63 124 4.0 5.0 0.00 0.00 0.00 52 1022.8
20260503183615 65 110 3.0 3.0 0.00 0.00 0.00 51 1022.9
20260503183112 64 301 1.0 1.0 0.00 0.00 0.00 53 1023.0
20260503182611 64 78 1.0 1.0 0.00 0.00 0.00 50 1023.2
20260503182109 63 132 4.0 5.0 0.00 0.00 0.00 51 1023.4
20260503181605 62 66 2.0 2.0 0.00 0.00 0.00 56 1023.3
20260503181102 63 99 3.0 3.0 0.00 0.00 0.00 53 1023.3
20260503180559 63 122 4.0 6.0 0.00 0.00 0.00 55 1023.4
20260503180056 62 143 4.0 5.0 0.00 0.00 0.00 54 1023.5
20260503175553 62 117 1.0 1.0 0.00 0.00 0.00 54 1023.7
20260503175051 62 101 2.0 2.0 0.00 0.00 0.00 56 1023.4
20260503174548 62 74 2.0 2.0 0.00 0.00 0.00 55 1023.5
20260503174044 61 97 1.0 2.0 0.00 0.00 0.00 52 1023.9
20260503173539 61 69 1.0 1.0 0.00 0.00 0.00 57 1023.8
20260503173036 61 148 5.0 5.0 0.00 0.00 0.00 58 1024.0
20260503172533 61 125 1.0 2.0 0.00 0.00 0.00 59 1024.0
20260503172030 60 144 4.0 5.0 0.00 0.00 0.00 56 1024.1
20260503171527 60 64 1.0 2.0 0.00 0.00 0.00 60 1024.1
20260503171024 60 83 1.0 2.0 0.00 0.00 0.00 59 1024.0
20260503170520 59 142 4.0 5.0 0.00 0.00 0.00 58 1024.2
20260503150907 55 51 2.0 2.0 0.00 0.00 0.00 70 1024.8
20260503150403 55 49 2.0 2.0 0.00 0.00 0.00 68 1024.8
20260503131256 52 20 5.0 6.0 0.00 0.00 0.00 77 1024.6
20260503130754 52 50 2.0 2.0 0.00 0.00 0.00 80 1024.6
20260503130251 52 42 2.0 3.0 0.00 0.00 0.00 80 1024.2
20260503120217 49 281 1.0 2.0 0.00 0.00 0.00 86 1023.9
20260503110645 45 252 0.0 0.0 0.00 0.00 0.00 94 1023.5
20260503110142 45 247 1.0 1.0 0.00 0.00 0.00 93 1023.4
20260503100109 45 277 0.0 0.0 0.00 0.00 0.00 94 1022.8
20260503081451 48 266 0.0 0.0 0.00 0.00 0.00 86 1022.1
20260503080948 48 274 1.0 1.0 0.00 0.00 0.00 85 1022.0
20260503080440 48 275 0.0 1.0 0.00 0.00 0.00 84 1022.1
20260503072916 49 258 0.0 1.0 0.00 0.00 0.00 81 1021.8
20260503072413 49 255 1.0 1.0 0.00 0.00 0.00 81 1021.6
20260503071910 49 280 0.0 1.0 0.00 0.00 0.00 81 1021.6
20260503071408 49 284 0.0 1.0 0.00 0.00 0.00 81 1021.6
20260503070903 50 288 1.0 1.0 0.00 0.00 0.00 80 1021.7
20260503070401 50 321 1.0 2.0 0.00 0.00 0.00 80 1021.6
20260503060326 51 287 0.0 1.0 0.00 0.00 0.00 75 1021.7
20260503054814 52 277 1.0 2.0 0.00 0.00 0.00 73 1021.5
20260503054310 52 285 1.0 1.0 0.00 0.00 0.00 73 1021.5
20260503053808 52 281 1.0 2.0 0.00 0.00 0.00 73 1021.6
20260503053306 52 272 2.0 2.0 0.00 0.00 0.00 73 1021.5
20260503052802 52 274 2.0 2.0 0.00 0.00 0.00 73 1021.4
20260503052259 52 282 1.0 2.0 0.00 0.00 0.00 72 1021.3
20260503051754 52 284 1.0 1.0 0.00 0.00 0.00 72 1021.5
20260503051246 52 277 0.0 1.0 0.00 0.00 0.00 72 1021.3
20260503050743 52 284 0.0 1.0 0.00 0.00 0.00 72 1021.3
20260503050239 52 284 0.0 0.0 0.00 0.00 0.00 72 1021.1
20260503045736 52 280 1.0 1.0 0.00 0.00 0.00 72 1021.3
20260503045234 53 275 1.0 1.0 0.00 0.00 0.00 72 1021.2
20260503044730 53 286 1.0 1.0 0.00 0.00 0.00 72 1021.0
20260503044228 53 282 0.0 0.0 0.00 0.00 0.00 71 1021.2